STARLINK-35468, 66118

Orbit data source: Space-Track

STARLINK-35468, 66118 is a payload satellite owned by SpaceX/Seattle (US) in LEO that was launched on Wed, 22 Oct 2025 UTC via an FALCON 9 launch vehicle from the Air Force Western Test Range (AFWTR). Payload-class satellites include a variety of spacecraft equipped with specific instruments for various scientific and technological missions. These include communications satellites like Starlink; space stations such as the ISS; scientific satellites like the Hubble; Earth observation satellites from companies like Planet Labs, Umbra, and HawkEye 360; GPS; miniature CubeSats for education and research; and military/defense satellites.

Loading next visibility...
Identifier
66118, 2025-237E
Orbit
LEO
Country
Flag of USUS
Related business
Manufacturer
SpaceX/Seattle
Mission
Operational Commercial Communications
Bus & Motor
STARLINK V2MO, Unknown motor
Mass
575 kg wet, ~530 kg dry
Launch date (UTC)
2025-10-22 (4 months ago)
Launch vehicle
FALCON 9
Launch site
Air Force Western Test Range (AFWTR)
Object type
Payload
Rocket body
Debris
Shape & HBR
Box + 2 Pan, 17.7 m
Radar Cross Section
36.964 m²

Expand to show TLE details & history
Last TLE update: 19 hours ago

TLE from 19 hours ago
0 STARLINK-35468
1 66118U 25237E   26061.35017280  .00020094  00000-0  68885-3 0  9995
2 66118  53.1607  73.9467 0001364  84.4210 275.6946 15.30194079 21488
Epoch: 2026-03-02T08:24Z
TLE epoch observation values (Epoch: 2026-03-02T08:24:14.929Z)
Latitude
-0.00007°
Longitude
147.7396°
Altitude
476.04 km
Speed
7.629 km/s
True Right ascension
04h 55m 47s
True Declination
0° 00' 00"
Sunlit
Object was in daylight at epoch
Visualization orbit readout
Latitude
Unknown
Longitude
Unknown
Altitude
Unknown
Speed
Unknown
Apparent Right ascension
Unknown
Apparent Declination
Unknown
Sunlit
N/A
Visualization observer readout
Local Sidereal Time
07:01:46
Azimuth
Unknown
Elevation
Unknown
Doppler factor
Unknown
Orbital elements
Apogee altitude
476.424 km
Perigee altitude
474.554 km
Semi-major axis
6,853.626 km
Eccentricity
0.00014
Inclination
53.1607°
RAAN
73.9467°
Arg. of periapsis
84.421°
True anomaly
275.67905°
Mean anomaly
275.6946°
Eccentric anomaly
275.68682°
Mean motion
3.82527 °/min
Orbital period
94.11 mins
BSTAR
0.00068885
Loading maneuver chart data...
Computing Atmospheric mass density...
Loading historical data...
Loading historical data...
Loading historical data...
Loading historical data...
Loading historical data...
Loading historical data...
Loading historical data...

Documentation

Showing up to 5 results
|